Regional Weather Roundup
Issued by NWS

Home | Current Version | Previous Version | Graphics & Text | Print | Product List | Glossary On
Versions: 1 2 3 4 5 6 7 8 9 10 11 12 13 14 15 16 17 18 19 20 21 22 23 24 25 26 27 28 29 30 31 32 33 34 35 36 37 38 39 40 41 42 43 44 45 46 47 48 49 50
000
ASUS43 KMPX 231401
RWRMN
WEATHER ROUNDUP FOR MINNESOTA
NATIONAL WEATHER SERVICE TWIN CITIES/CHANHASSEN MN
900 AM CDT TUE SEP 23 2014


NOTE: "FAIR" INDICATES FEW OR NO CLOUDS BELOW 12,000 FEET WITH NO
SIGNIFICANT WEATHER AND/OR OBSTRUCTIONS TO VISIBILITY. N/A MEANS
CURRENT SKY AND/OR WEATHER CONDITIONS ARE NOT AVAILABLE.

MNZ060>063-068>070-231500-
   Twin Cities Metro

CITY           SKY/WX    TMP DP  RH WIND       PRES   REMARKS
TWIN CITIES    MOSUNNY   57  50  77 SE6       30.23R
ST PAUL        SUNNY     56  51  84 SE7       30.24R
CRYSTAL        SUNNY     59  51  75 S6        30.21R
BLAINE         SUNNY     59  54  82 SE6       30.21S
LAKEVILLE      SUNNY     55  52  88 CALM      30.23R
EDEN PRAIRIE   SUNNY     58  51  78 SE5       30.21R
SOUTH ST PAUL  SUNNY     56  50  82 SE5       30.23R
LAKE ELMO      FAIR      55  52  88 S5        30.24R
$$
MNZ001>005-007-008-013>017-022>024-027-028-231500-
   Northwest Minnesota

CITY           SKY/WX    TMP DP  RH WIND       PRES   REMARKS
BEMIDJI        SUNNY     55  50  83 S8        30.12S
HALLOCK        SUNNY     59  52  77 S14       30.01S
ROSEAU         SUNNY     57  52  82 S10       30.06S
WARROAD        SUNNY     55  52  88 S8        30.07S
THIEF RVR FALL SUNNY     57  50  77 S9        30.06S
CROOKSTON      SUNNY     59  52  77 S13       30.05S
FOSSTON        SUNNY     57  50  77 SE7       30.08F
DETROIT LAKES  SUNNY     55  50  82 SE8       30.11R
MOORHEAD       SUNNY     61  52  72 S12       30.07S
PARK RAPIDS    SUNNY     54  49  83 SE9       30.13S
MAHNOMEN       FAIR      56  50  80 SE5       30.08S
$$
MNZ006-009>011-018-025>026-231500-
   North Central Minnesota

CITY           SKY/WX    TMP DP  RH WIND       PRES   REMARKS
BAUDETTE       SUNNY     54  50  86 VRB6      30.09S
FLAG ISLAND    SUNNY     57  54  88 SE13      30.06S
INTL FALLS     SUNNY     54  50  86 VRB3      30.14S
WASKISH        SUNNY     57  52  82 CALM      30.11S
BIG FORK       SUNNY     54  54 100 CALM      30.16S
LONGVILLE      SUNNY     50  50 100 SE3       30.15S
GRAND RAPIDS   SUNNY     52  48  87 SE5       30.18R
CRANE LAKE     SUNNY     52  50  93 CALM      30.18F
ORR            SUNNY     54  48  82 CALM      30.15S
COOK           SUNNY     50  48  93 E1        30.18S
WALKER         FAIR      56  49  78 S5        30.13S
$$
MNZ012-019>021-037-231500-
   Northeast Minnesota

CITY           SKY/WX    TMP DP  RH WIND       PRES   REMARKS
DULUTH         SUNNY     59  50  72 SW3       30.21R
ELY            SUNNY     52  48  87 CALM      30.20R
HIBBING        SUNNY     50  47  89 SE3       30.20R
EVELETH        SUNNY     50  50 100 CALM      30.20S
DULUTH HARBOR  SUNNY     55  52  88 SW5       30.22R
TWO HARBORS    SUNNY     57  50  77 CALM      30.19S
SILVER BAY     SUNNY     54  52  94 CALM      30.19R
GRAND MARAIS     N/A     56  50  80 SW5       30.19R
G MARAIS ARPRT SUNNY     63  48  59 CALM      30.21S
$$
MNZ029>031-032-039>041-046>048-054>057-064-231500-
   West Central Minnesota

CITY           SKY/WX    TMP DP  RH WIND       PRES   REMARKS
FERGUS FALLS   MOSUNNY   59  48  67 SE12      30.10S
WHEATON        MOSUNNY   54  48  82 SE12      30.10R
MORRIS         MOSUNNY   55  50  82 SE10      30.11S
ALEXANDRIA     MOSUNNY   56  50  80 S12       30.15S
ELBOW LAKE     FAIR      55  49  80 SE13      30.11S
WADENA         SUNNY     54  50  87 SE6       30.12F
GLENWOOD       MOSUNNY   55  52  88 SE8       30.15S
APPLETON       PTSUNNY   55  50  82 SE8       30.11S
BENSON         PTSUNNY   55  50  82 S8        30.13S
ORTONVILLE     PTSUNNY   54  48  82 SE8       30.10R
MADISON        PTSUNNY   57  52  82 SE8       30.11S
WILLMAR        FAIR      57  50  77 SE6       30.17S
$$
MNZ033>034-036-042>043-049>051-058-059-231500-
   Central Minnesota

CITY           SKY/WX    TMP DP  RH WIND       PRES   REMARKS
ST CLOUD       MOSUNNY   56  51  84 SE6       30.19R
SAUK CENTRE    FAIR      55  49  83 SE8       30.16S
PAYNESVILLE    MOSUNNY   52  48  86 E7        30.17S
AITKIN         SUNNY     61  54  77 S7        30.16S
PINE RIVER     SUNNY     52  52 100 SE6       30.18S
BRAINERD       SUNNY     56  51  84 S6        30.17S
STAPLES        SUNNY     52  48  87 SE5       30.15S VSB 1
LONG PRAIRIE   FAIR      54  50  87 SE8       30.16S
LITTLE FALLS   SUNNY     54  50  87 SE5       30.17S
LITCHFIELD     MOSUNNY   57  52  82 SE6       30.18S
BUFFALO        MOSUNNY   56  50  78 SE3       30.21R
MAPLE LAKE     MOSUNNY   56  52  88 S5        30.21R
$$
MNZ037-044-045-052-053-231500-
   East Central Minnesota

CITY           SKY/WX    TMP DP  RH WIND       PRES   REMARKS
PRINCETON      SUNNY     54  54 100 SE1       30.20S
MORA           SUNNY     52  50  93 S3        30.22S
CAMBRIDGE      SUNNY     57  48  72 SE5       30.19S
RUSH CITY      SUNNY     53  52  97 CALM      30.22S
MOOSE LAKE     SUNNY     48  46  93 CALM      30.19S
HINCKLEY       FAIR      52  52 100 CALM      30.22S
CLOQUET        SUNNY     54  50  87 S7        30.21R
MCGREGOR       SUNNY     52  52 100 S3        30.19S
$$
MNZ071>073-080-081-089-090-097-098-231500-
   Southwest Minnesota

CITY           SKY/WX    TMP DP  RH WIND       PRES   REMARKS
MONTEVIDEO     PTSUNNY   57  52  82 S8        30.14S
GRANITE FALLS  PTSUNNY   54  50  86 SE7       30.16S
CANBY          CLOUDY    56  53  88 SE6       30.13R
MARSHALL       CLOUDY    57  48  72 S9        30.14R
REDWOOD FALLS  PTSUNNY   57  51  80 S8        30.17R
OLIVIA         PTSUNNY   55  50  82 S9        30.16S
PIPESTONE      LGT RAIN  55  50  82 S9        30.15R
WINDOM         PTSUNNY   55  52  88 NE6       30.19R
WORTHINGTON    CLOUDY    55  50  82 S12       30.19S
JACKSON        PTSUNNY   55  50  82 S8        30.21R
TRACY          PTSUNNY   58  50  77 S13       30.16R
SLAYTON        CLOUDY    53  52  95 CALM      30.18R
$$
MNZ065>067-074>077-082>085-091>093-231500-
   South Central Minnesota

CITY           SKY/WX    TMP DP  RH WIND       PRES   REMARKS
MANKATO        MOSUNNY   55  46  71 S8        30.21S
NEW ULM        MOSUNNY   54  52  94 S8        30.19R
ST JAMES       PTSUNNY   55  52  88 S7        30.21R
FAIRMONT       PTSUNNY   55  48  76 S8        30.22R
GLENCOE        MOSUNNY   58  50  74 SE5       30.20R
FARIBAULT      SUNNY     61  48  63 S5        30.24R
OWATONNA       SUNNY     57  50  77 SE9       30.24R
WASECA         SUNNY     55  46  71 S8        30.25R
ALBERT LEA     MOSUNNY   55  52  88 S6        30.25R
$$
MNZ078>079-086>088-094>096-231500-
   Southeast Minnesota

CITY           SKY/WX    TMP DP  RH WIND       PRES   REMARKS
ROCHESTER      SUNNY     55  51  86 S6        30.28R
RED WING       SUNNY     57  54  88 SE3       30.24S
STANTON        SUNNY     58  51  76 S6        30.22S
DODGE CENTER   SUNNY     57  54  88 S7        30.26R
WINONA         FOG       52  50  93 SE5       30.28R VSB 1/4
AUSTIN         SUNNY     54  50  87 S3        30.26R
PRESTON        SUNNY     55  53  94 S6        30.29R
$$
ABBREVIATIONS USED IN REMARKS
   TC - TEMPERATURES IN CELSIUS
  WCI - WIND CHILL INDEX
   HX - HEAT INDEX
  VSB - VISIBILITY
$$



USA.gov is the U.S. government's official web portal to all federal, state and local government web resources and services.